[[{"header":{"parameterUnit":"m.s-1","parameterCategory":1,"la1":30.2992,"la2":30.254,"lo1":-89.0895,"lo2":-89.0443,"dy":0.0025,"dx":0.0025,"nx":19,"ny":19,"refTime":"2026-04-19T09:00:00:Z","depth":0,"parameterNumber":2,"parameterNumberName":"U-component_of_WINDS"},"data":[0,0,0,-4.6669,-4.6673,-4.6833,-4.6833,-4.7095,-4.7098,0,0,0,0,0,0,0,0,0,0,0,-4.6656,-4.6659,-4.6668,-4.6673,-4.6833,-4.6833,-4.7095,-4.7098,0,0,0,0,0,0,0,0,0,0,0,-4.6655,-4.6659,-4.6662,-4.6674,-4.6833,-4.6833,-4.7094,-4.6953,0,0,0,0,0,0,0,0,0,0,-4.6788,-4.6811,-4.6658,-4.6662,-4.6675,-4.6833,-4.6833,-4.6945,-4.6962,-4.7047,0,-4.7133,0,-4.712,-4.7119,-4.712,0,0,0,-4.6647,-4.6797,-4.6808,-4.6663,-4.6677,-4.6833,-4.6754,-4.6954,-4.6973,-4.707,-4.7136,-4.7144,-4.7124,-4.7121,-4.7123,-4.7705,-4.7708,0,0,-4.6638,-4.6704,-4.6796,-4.6822,-4.6802,-4.6749,-4.6759,-4.6964,-4.7041,-4.7137,-4.7149,-4.7129,-4.7123,-4.7126,-4.7701,-4.7706,0,0,0,-4.6631,-4.6699,-4.6704,-4.6813,-4.6838,-4.6754,-4.6766,-4.7032,-4.7028,-4.7152,-4.7132,-4.7125,-4.7129,-4.7696,-4.7703,-4.7965,0,0,0,-4.6624,-4.6694,-4.6702,-4.6744,-4.6835,-4.6937,-4.683,-4.7014,-4.7035,-4.713,-4.7125,-4.7132,-4.7692,-4.77,-4.7948,-4.8079,0,0,0,-4.6634,-4.6695,-4.673,-4.6747,-4.6818,-4.6932,-4.6939,-4.7016,-4.7024,-4.712,-4.7133,-4.7689,-4.7698,-4.7933,-4.8055,-4.8255,0,0,0,-4.6664,-4.696,-4.6736,-4.7058,-4.6817,-4.7092,-4.6937,-4.7138,-4.7251,-4.7127,-4.7693,-4.7702,-4.7928,-4.8039,-4.8239,-4.8439,-4.8527,0,0,-4.7074,-4.7012,-4.7196,-4.7,-4.7332,-4.7062,-4.7432,-4.7473,-4.7421,-4.7613,-4.7626,-4.7954,-4.8053,-4.8252,-4.8988,-4.9059,0,0,0,-4.7348,-4.7483,-4.7556,-4.7667,-4.7705,-4.775,-4.7726,-4.7741,-4.7901,-4.7533,-4.8075,-4.8132,-4.8246,-4.8339,-4.8399,-4.8494,-4.7746,-4.7745,-4.7744,-4.8028,-4.7945,-4.8245,-4.8183,-4.8292,-4.8265,-4.8347,-4.8362,-4.8245,-4.8375,-4.8434,-4.8891,-4.9002,-4.9046,-4.9146,-4.8527,-4.8528,-4.8529,-4.853,-4.8626,-4.8805,-4.8641,-4.8875,-4.8786,-4.8981,-4.8965,-4.8876,-4.9045,-4.8839,-4.8936,-4.8724,-4.9126,-4.9209,-4.8549,-4.8546,-4.8543,-4.8541,-4.854,-4.9067,-4.9138,-4.915,-4.9302,-4.9429,-4.9352,-4.9523,-4.9432,-4.9349,-4.9444,-4.9499,-4.9494,-4.9482,-4.9475,-4.9477,-4.9478,-4.948,-4.9481,-4.9482,-4.9522,-4.9526,-4.9681,-4.9746,-4.9805,-4.9873,-4.9846,-4.9902,-4.9942,-4.9863,-4.9863,-4.9738,-4.9178,-4.9043,-4.9506,-4.9502,-4.9499,-4.9496,-4.9495,-5.0169,-5.0008,-5.0248,-5.0309,-5.0376,-5.0509,-5.039,-5.0512,-5.0545,-5.0632,-5.0483,-5.0083,-5.0013,-4.9965,-4.9853,-5.0497,-5.0497,-5.0497,-5.0497,-5.0546,-5.0499,-5.0725,-5.0827,-5.0916,-5.0833,-5.1108,-5.1089,-5.1045,-5.106,-5.0952,-5.0793,-5.0747,-5.0705,-5.064,-5.0535,-5.1338,-5.1339,-5.134,-5.0941,-5.0899,-5.1152,-5.1105,-5.1151,-5.1193,-5.1449,-5.1573,-5.1487,-5.1372,-5.1071,-5.1035,-5.0778,-5.0697,-5.0583,-5.0485,-5.0289,0,0]},{"header":{"parameterUnit":"m.s-1","parameterCategory":1,"la1":30.2992,"la2":30.254,"lo1":-89.0895,"lo2":-89.0443,"dy":0.0025,"dx":0.0025,"nx":19,"ny":19,"refTime":"2026-04-19T09:00:00:Z","depth":0,"parameterNumber":3,"parameterNumberName":"V-component_of_WINDS"},"data":[0,0,0,-5.3486,-5.3489,-5.3628,-5.3628,-5.3823,-5.3825,0,0,0,0,0,0,0,0,0,0,0,-5.346,-5.3462,-5.3486,-5.349,-5.3628,-5.3628,-5.3823,-5.3825,0,0,0,0,0,0,0,0,0,0,0,-5.3459,-5.3461,-5.3464,-5.349,-5.3627,-5.3628,-5.3823,-5.3711,0,0,0,0,0,0,0,0,0,0,-5.3573,-5.3565,-5.3461,-5.3464,-5.3491,-5.3627,-5.3628,-5.3705,-5.3718,-5.377,0,-5.3824,0,-5.3828,-5.384,-5.3841,0,0,0,-5.3478,-5.3555,-5.3578,-5.3464,-5.3493,-5.3627,-5.3562,-5.3712,-5.3726,-5.3787,-5.3826,-5.3833,-5.3831,-5.3841,-5.3842,-5.4191,-5.4193,0,0,-5.347,-5.3492,-5.3569,-5.3589,-5.3572,-5.3558,-5.3566,-5.372,-5.3763,-5.3827,-5.3837,-5.3834,-5.3843,-5.3845,-5.4188,-5.4191,0,0,0,-5.3456,-5.3488,-5.3507,-5.3581,-5.3605,-5.3562,-5.3572,-5.3756,-5.3761,-5.3839,-5.3837,-5.3844,-5.3847,-5.4186,-5.4189,-5.4321,0,0,0,-5.3451,-5.3479,-5.3504,-5.352,-5.3603,-5.3683,-5.3605,-5.375,-5.3767,-5.3836,-5.3844,-5.3849,-5.4184,-5.4188,-5.4312,-5.4379,0,0,0,-5.3446,-5.3479,-5.3504,-5.352,-5.3581,-5.368,-5.3693,-5.3753,-5.3767,-5.3841,-5.3849,-5.4182,-5.4187,-5.4304,-5.4365,-5.4477,0,0,0,-5.3446,-5.3618,-5.3507,-5.3697,-5.358,-5.3761,-5.3692,-5.3825,-5.3905,-5.3845,-5.4184,-5.4189,-5.4301,-5.4358,-5.4468,-5.4574,-5.4621,0,0,-5.3675,-5.3646,-5.3757,-5.3661,-5.3868,-5.3738,-5.3963,-5.4013,-5.3998,-5.4126,-5.4134,-5.4315,-5.4365,-5.4475,-5.4873,-5.491,0,0,0,-5.3837,-5.3916,-5.3966,-5.4044,-5.4088,-5.413,-5.4144,-5.4162,-5.427,-5.407,-5.4384,-5.4413,-5.4476,-5.4526,-5.4558,-5.461,-5.4213,-5.4212,-5.4212,-5.4193,-5.4166,-5.4346,-5.4336,-5.4412,-5.4424,-5.4482,-5.4508,-5.4457,-5.4532,-5.457,-5.4815,-5.4874,-5.4898,-5.4953,-5.4624,-5.4624,-5.4625,-5.4625,-5.4526,-5.4634,-5.4563,-5.4713,-5.4682,-5.4805,-5.4822,-5.4782,-5.4891,-5.4785,-5.4839,-5.4726,-5.494,-5.4986,-5.4634,-5.4633,-5.4632,-5.4631,-5.463,-5.4757,-5.4804,-5.4824,-5.4933,-5.5019,-5.5001,-5.5109,-5.5076,-5.5046,-5.51,-5.5136,-5.5133,-5.5126,-5.5119,-5.512,-5.5121,-5.5122,-5.5122,-5.5123,-5.4988,-5.5007,-5.5104,-5.5164,-5.5209,-5.5263,-5.5276,-5.5318,-5.5356,-5.5323,-5.5323,-5.5264,-5.4966,-5.4892,-5.5136,-5.5134,-5.5132,-5.5131,-5.513,-5.5336,-5.5252,-5.5402,-5.5447,-5.5513,-5.56,-5.5557,-5.5645,-5.5675,-5.5729,-5.5658,-5.5443,-5.541,-5.5385,-5.5323,-5.5664,-5.5664,-5.5664,-5.5664,-5.5531,-5.5511,-5.5656,-5.573,-5.5798,-5.5774,-5.594,-5.5951,-5.5947,-5.5963,-5.5909,-5.5824,-5.5799,-5.5781,-5.5747,-5.5689,-5.6115,-5.6116,-5.6116,-5.5743,-5.5728,-5.5878,-5.5876,-5.5925,-5.5967,-5.6122,-5.6207,-5.6185,-5.6134,-5.5974,-5.5955,-5.5818,-5.5775,-5.5721,-5.5669,-5.5561,0,0]}]]